Meknes, Morocco

6:14 PM WEST on September 21, 2017 (GMT +0100)
Meknes

Weather History for GMFM - April, 2013

Change the Weather History Date:

Tuesday, April 23, 2013

  Actual Average (GMFF) Record (GMFF)
Temperature  
Mean Temperature 56 °F -  
Max Temperature 69 °F 73 °F 82 °F (2017)
Min Temperature 44 °F 52 °F 37 °F (2001)
Degree Days  
Heating Degree Days 8    
Growing Degree Days 6 (Base 50)    
Moisture  
Dew Point 46 °F    
Average Humidity 66    
Maximum Humidity 94    
Minimum Humidity 29    
Precipitation  
Precipitation 0.00 in 0.07 in - ()
Sea Level Pressure  
Sea Level Pressure 29.96 in    
Wind  
Wind Speed 8 mph ()    
Max Wind Speed 23 mph    
Max Gust Speed -    
Visibility 4.7 miles    
Events      
Averages and records for this station are not official NWS values.
T = Trace of Precipitation, MM = Missing Value Source: Averaged Metar Reports

Daily Weather History Graph

Daily Weather History Graph

Search for Another Location

Airport or City:

Trip Planner

Search our weather history database for the weather conditions in past years. The results will help you decide how hot, cold, wet, or windy it might be!

Date:

Astronomy

Apr. 23, 2013 Rise Set
Actual Time 5:41 AM WET 6:59 PM WET
Civil Twilight 5:15 AM WET 7:25 PM WET
Nautical Twilight 4:44 AM WET 7:56 PM WET
Astronomical Twilight 4:12 AM WET 8:29 PM WET
Moon 4:44 PM WET (4/23) 3:54 AM WET (4/23)
Length of Visible Light 14h 10m
Length of Day
13h 17m
Waxing Gibbous, 93% of the Moon is Illuminated
Apr 23
Waxing Gibbous
Apr 25
Full
May 2
Last Quarter
May 10
New
May 18
First Quarter

Hourly Weather History & Observations

Time (WET) Temp. Windchill Dew Point Humidity Pressure Visibility Wind Dir Wind Speed Gust Speed Precip Events Conditions
12:00 AM 51 °F - 47 °F 81% 29.97 in 6 mi East 2.3 mph - -   Clear
12:00 AM 51.8 °F - 46.4 °F 82% 29.98 in - East 2.3 mph - N/A   Clear
1:00 AM 48.2 °F - 44.6 °F 87% 29.95 in - ESE 3.5 mph - N/A   Clear
2:00 AM 50.0 °F - 48.2 °F 94% 29.95 in - Calm Calm - N/A   Clear
3:00 AM 49 °F - 47 °F 88% 29.94 in 6 mi ESE 3.5 mph - -   Clear
3:00 AM 48.2 °F - 46.4 °F 93% 29.98 in - ESE 2.3 mph - N/A   Clear
4:00 AM 51.8 °F - 46.4 °F 82% 29.92 in - SSE 2.3 mph - N/A   Clear
5:00 AM 44.6 °F 42.2 °F 42.8 °F 93% 30.57 in - East 4.6 mph - N/A   Clear
5:40 AM 48.2 °F - 46.4 °F 93% 29.95 in 2.5 mi East 5.8 mph - N/A   Scattered Clouds
6:00 AM 48 °F - 46 °F 89% 29.96 in 2 mi East 5.8 mph - -   Mist
6:00 AM 48.2 °F - 46.4 °F 93% 29.95 in 2.5 mi East 5.8 mph - N/A   Scattered Clouds
6:30 AM 51.8 °F - 50.0 °F 94% 29.95 in 1.2 mi East 6.9 mph - N/A   Mostly Cloudy
7:00 AM 51.8 °F - 50.0 °F 94% 29.95 in 1.9 mi East 6.9 mph - N/A   Scattered Clouds
8:00 AM 53.6 °F - 50.0 °F 88% 29.98 in 2.5 mi East 3.5 mph - N/A   Scattered Clouds
9:00 AM 60 °F - 51 °F 64% 29.95 in 4 mi ENE 11.5 mph - -   Scattered Clouds
9:00 AM 59.0 °F - 55.4 °F 88% 29.98 in 3.7 mi ENE 11.5 mph - N/A   Scattered Clouds
10:00 AM 62.6 °F - 50.0 °F 63% 29.98 in 3.7 mi ENE 9.2 mph - N/A   Scattered Clouds
11:00 AM 66.2 °F - 50.0 °F 56% 29.98 in 5.0 mi ENE 15.0 mph - N/A   Scattered Clouds
12:00 PM 67 °F - 48 °F 39% 29.90 in 5 mi ENE 21.9 mph - -   Scattered Clouds
12:00 PM 68.0 °F - 48.2 °F 49% - 5.0 mi ENE 21.9 mph - N/A   Scattered Clouds
1:00 PM 68.0 °F - 46.4 °F 46% 29.95 in 5.0 mi NE 23.0 mph - N/A   Scattered Clouds
2:00 PM 68.0 °F - 44.6 °F 43% 29.92 in 6.2 mi ENE 18.4 mph - N/A   Partly Cloudy
3:00 PM 68 °F - 45 °F 32% 29.86 in 6 mi ENE 18.4 mph - -   Scattered Clouds
3:00 PM 68.0 °F - 44.6 °F 43% 29.92 in 6.2 mi ENE 18.4 mph - N/A   Partly Cloudy
4:00 PM 68.0 °F - 41.0 °F 37% 29.92 in 6.2 mi ENE 18.4 mph - N/A   Partly Cloudy
5:00 PM 66.2 °F - 41.0 °F 40% 29.92 in 6.2 mi ENE 18.4 mph - N/A   Partly Cloudy
6:00 PM 65 °F - 40 °F 29% 29.87 in 6 mi ENE 19.6 mph - -   Scattered Clouds
6:00 PM 64.4 °F - 41.0 °F 42% 29.92 in 6.2 mi ENE 19.6 mph - N/A   Partly Cloudy
7:00 PM 62.6 °F - 41.0 °F 45% 29.92 in 6.2 mi ENE 16.1 mph - N/A   Partly Cloudy
8:00 PM 59.0 °F - 41.0 °F 51% 29.95 in 6.2 mi ENE 16.1 mph - N/A   Partly Cloudy
9:00 PM 57 °F - 41 °F 43% 29.94 in 6 mi ENE 20.7 mph - -  
9:00 PM 57.2 °F - 41.0 °F 55% 29.95 in - ENE 20.7 mph - N/A   Clear
10:00 PM 55.4 °F - 41.0 °F 58% 29.98 in - East 13.8 mph - N/A   Clear
11:00 PM 53.6 °F - 41.0 °F 62% 29.95 in - East 17.3 mph - N/A   Clear